Location: ??????
(55.6130°N, 37.7882°E)
Time: 07:03:55
(UTC+00:00)

Meteor 1-27 Rocket - Visible Passes

Search period start: 16 July 2024 00:00
Search period end: 26 July 2024 00:00
Orbit: 829 x 909 km, 81.3° (Epoch: 15 July)

Date Brightness Start Highest point End Pass type
(mag) Time Alt. Az. Time Alt. Az. Time Alt. Az.
16 Jul 4.6 00:04:22 10° NNW 00:09:38 35° W 00:14:47 10° SSW visible
16 Jul 6.2 20:31:50 10° N 20:35:13 15° NE 20:38:34 10° E visible
16 Jul 4.4 22:14:14 10° N 22:20:01 55° ENE 22:25:41 10° SSE visible
16 Jul 4.6 23:57:56 10° NNW 00:03:08 34° W 00:08:15 10° SSW visible
17 Jul 6.2 20:25:21 10° N 20:28:46 16° NE 20:32:09 10° E visible
17 Jul 4.4 22:07:45 10° N 22:13:34 56° ENE 22:19:13 10° SSE visible
17 Jul 4.7 23:51:29 10° NNW 23:56:39 33° W 00:01:44 10° SSW visible
18 Jul 6.1 20:18:51 10° N 20:22:19 16° NE 20:25:45 10° E visible
18 Jul 4.3 22:01:17 10° N 22:07:05 57° ENE 22:12:45 10° SSE visible
18 Jul 4.7 23:45:01 10° NNW 23:50:10 33° W 23:55:12 10° SSW visible
19 Jul 6.1 20:12:23 10° N 20:15:53 16° NE 20:19:20 10° E visible
19 Jul 4.3 21:54:49 10° N 22:00:38 58° ENE 22:06:08 11° SSE visible
19 Jul 4.7 23:38:35 10° NNW 23:43:41 32° W 23:48:30 11° SSW visible
20 Jul 6.1 20:05:53 10° N 20:09:26 16° NE 20:12:56 10° E visible
20 Jul 4.2 21:48:21 10° N 21:54:10 59° ENE 21:59:23 12° SSE visible
20 Jul 4.8 23:32:07 10° NNW 23:37:12 31° W 23:41:46 12° SW visible
21 Jul 6.0 19:59:24 10° N 20:02:59 16° NE 20:06:32 10° E visible
21 Jul 4.2 21:41:53 10° N 21:47:42 60° ENE 21:52:40 14° SSE visible
21 Jul 4.8 23:25:41 10° NNW 23:30:43 31° W 23:35:03 13° SW visible
22 Jul 6.0 19:52:55 10° N 19:56:32 16° NE 20:00:07 10° E visible
22 Jul 4.2 21:35:25 10° N 21:41:14 61° ENE 21:45:58 15° SSE visible
22 Jul 4.8 23:19:14 10° NNW 23:24:13 30° W 23:28:22 13° SW visible
23 Jul 6.0 19:46:26 10° N 19:50:06 17° NE 19:53:42 10° E visible
23 Jul 4.1 21:28:57 10° N 21:34:45 62° ENE 21:39:19 16° SSE visible
23 Jul 4.9 23:12:47 10° NNW 23:17:43 29° W 23:21:41 14° SW visible
24 Jul 6.0 19:39:56 10° N 19:43:39 17° NE 19:47:18 10° E visible
24 Jul 4.1 21:22:29 10° N 21:28:17 63° ENE 21:32:39 17° SSE visible
24 Jul 4.9 23:06:20 10° NNW 23:11:14 29° W 23:15:02 14° SW visible
25 Jul 5.9 19:33:27 10° N 19:37:12 17° NE 19:40:53 10° E visible
25 Jul 4.0 21:16:00 10° N 21:21:49 64° ENE 21:26:01 18° SSE visible
25 Jul 4.9 22:59:53 10° NNW 23:04:44 28° W 23:08:24 15° SW visible
